Terminal Aerodrome Forecast
Issued by NWS Pittsburgh, PA

Current Version | Previous Version | Graphics & Text | Print | Product List | Glossary On
Versions: 1 2 3 4 5 6 7 8 9 10 11 12 13 14 15 16 17 18 19 20 21 22 23 24 25 26 27 28
000
FTUS41 KPBZ 031823 AAA
TAFPIT
TAF AMD
KPIT 031823Z 0318/0424 28007KT P6SM OVC017
     FM032100 27006KT P6SM OVC022
     FM040200 25005KT P6SM OVC035
     FM041500 11004KT P6SM BKN120=

USA.gov is the U.S. government's official web portal to all federal, state and local government web resources and services.